Regional Weather Roundup
Issued by NWS

Home | Current Version | Previous Version | Text Only | Print | Product List | Glossary Off
Versions: 1 2 3 4 5 6 7 8 9 10 11 12 13 14 15 16 17 18 19 20 21 22 23 24 25 26 27 28 29 30 31 32 33 34 35 36 37 38 39 40 41 42 43 44 45 46 47 48 49 50

605
ASUS43 KDTX 010610
RWRMI
MICHIGAN HOURLY REGIONAL WEATHER ROUNDUP
NATIONAL WEATHER SERVICE DETROIT/PONTIAC MI
200 AM EDT SAT OCT 01 2016

NOTE: "FAIR" INDICATES FEW OR NO CLOUDS BELOW 12,000 FEET WITH NO
SIGNIFICANT WEATHER AND/OR OBSTRUCTION TO VISIBILITY.

MIZ047>049-052>055-059>063-066>070-074>076-081>083-010700-
SOUTHEAST LOWER MICHIGAN

CITY           SKY/WX    TMP DP  RH WIND       PRES   REMARKS
ADRIAN         LGT RAIN  60  60 100 E7        30.06S FOG
6HR MIN TEMP:  59; 6HR MAX TEMP:  61;

ALMA           CLOUDY    58  57  99 NE8       30.13F
ANN ARBOR      CLOUDY    57  57 100 NE6       30.07F FOG
BAD AXE        CLOUDY    56  55  96 E9        30.16F
6HR MIN TEMP:  56; 6HR MAX TEMP:  59;

CARO           CLOUDY    56  56  98 E5        30.13F
DETROIT CITY   CLOUDY    57  57 100 NE8       30.08F
6HR MIN TEMP:  57; 6HR MAX TEMP:  61; 6HR PCP:  0.05;

DETROIT        LGT RAIN  58  58 100 NE7       30.08S FOG
6HR MIN TEMP:  58; 6HR MAX TEMP:  62; 6HR PCP:  0.05;

FLINT          CLOUDY    57  55  93 E10       30.11F
6HR MIN TEMP:  56; 6HR MAX TEMP:  60; 6HR PCP:  0.01;

GROSSE ILE     CLOUDY    60  59  96 NE5       30.06S
6HR MIN TEMP:  60; 6HR MAX TEMP:  62;

HILLSDALE      DRIZZLE   59  59 100 E6        30.05S
HOWELL         DRIZZLE   56  56  98 NE5       30.10S

CITY           SKY/WX    TMP DP  RH WIND       PRES   REMARKS
JACKSON        CLOUDY    58  58 100 NE8       30.07F
6HR MIN TEMP:  58; 6HR MAX TEMP:  60; 6HR PCP:  0.05;

LAMBERTVILLE   LGT RAIN  61  59  93 CALM      30.05F
6HR MIN TEMP:  61; 6HR MAX TEMP:  62;

LANSING        CLOUDY    58  55  90 E13       30.11S
6HR MIN TEMP:  58; 6HR MAX TEMP:  60; 6HR PCP:  0.05;

LAPEER         CLOUDY    56  55  97 E6        30.12S FOG
6HR MIN TEMP:  56; 6HR MAX TEMP:  59; 6HR PCP:  0.09;

MASON          CLOUDY    56  55  96 NE7       30.09F FOG
MONROE         RAIN      61  60  94 S5        30.05F
6HR MIN TEMP:  61; 6HR MAX TEMP:  63; 6HR PCP:  0.04;

MT. CLEMENS    CLOUDY    57  56  94 NE14      30.07F
6HR MIN TEMP:  57; 6HR MAX TEMP:  59; 6HR PCP:  0.04;

PONTIAC        CLOUDY    56  54  93 NE9       30.09F FOG
6HR MIN TEMP:  56; 6HR MAX TEMP:  60; 6HR PCP:  0.08;

PORT HURON     CLOUDY    57  55  94 NE7       30.12S FOG
TRI CITIES     CLOUDY    57  57 100 NE9       30.15F FOG
6HR MIN TEMP:  57; 6HR MAX TEMP:  61;

MIDLAND        CLOUDY    56  56  99 NE8       30.14F FOG
6HR MIN TEMP:  56; 6HR MAX TEMP:  61; 6HR PCP:  0.19;

TROY           DRIZZLE   57  55  92 NE7       30.11S
SAGINAW HB     CLOUDY    55  55 100 NE6       30.13F
$$
MIZ043>046-050>051-056>058-064>065-071>073-077>080-010700-
SOUTHWEST LOWER MICHIGAN

CITY           SKY/WX    TMP DP  RH WIND       PRES   REMARKS
BATTLE CREEK   CLOUDY    60  59  96 NE8       30.07F
6HR MIN TEMP:  59; 6HR MAX TEMP:  60; 6HR PCP:  0.01;

BENTON HARBOR  CLOUDY    61  57  87 NE5       30.05F
6HR MIN TEMP:  60; 6HR MAX TEMP:  61; 6HR PCP: TRACE;

BIG RAPIDS     CLOUDY    57  56  95 E8        30.13F
6HR MIN TEMP:  57; 6HR MAX TEMP:  60; 6HR PCP:  0.14;

COLDWATER      DRIZZLE   60  60 100 NE3       30.05F
6HR MIN TEMP:  59; 6HR MAX TEMP:  60;

FREMONT        CLOUDY    58  56  96 E10       30.10F
HOLLAND        CLOUDY    61  58  90 E8        30.08F
6HR MIN TEMP:  60; 6HR MAX TEMP:  61; 6HR PCP:  0.08;

GRAND RAPIDS   CLOUDY    59  57  93 E13       30.09F
6HR MIN TEMP:  59; 6HR MAX TEMP:  60; 6HR PCP:  0.06;

IONIA          CLOUDY    56  55  96 NE13G18   30.09F FOG
6HR MIN TEMP:  56; 6HR MAX TEMP:  59; 6HR PCP:  0.03;

KALAMAZOO      CLOUDY    61  57  87 CALM      30.07S
6HR MIN TEMP:  59; 6HR MAX TEMP:  61; 6HR PCP:  0.01;

LUDINGTON      LGT RAIN  56  56  99 NE7       30.12S
6HR MIN TEMP:  56; 6HR MAX TEMP:  60; 6HR PCP:  0.33;

MARSHALL       CLOUDY    60  59  98 NE6       30.06F
6HR MIN TEMP:  58; 6HR MAX TEMP:  60; 6HR PCP:  0.05;

MOUNT PLEASANT CLOUDY    56  55  97 E8        30.14S FOG
6HR MIN TEMP:  56; 6HR MAX TEMP:  60; 6HR PCP:  0.21;

MUSKEGON       CLOUDY    61  58  90 E9        30.09S
6HR MIN TEMP:  60; 6HR MAX TEMP:  61; 6HR PCP:  0.03;

SOUTH HAVEN    CLOUDY    61  60  96 E3        30.06F
$$
MIZ016>042-010700-
NORTHERN LOWER MICHIGAN

CITY           SKY/WX    TMP DP  RH WIND       PRES   REMARKS
ALPENA         CLOUDY    61  54  77 E8        30.21F
6HR MIN TEMP:  60; 6HR MAX TEMP:  62;

BEAVER ISLAND  LGT RAIN  59  56  88 E10       30.22F
6HR MIN TEMP:  58; 6HR MAX TEMP:  62;

BELLAIRE       CLOUDY    59  55  86 N7        30.17F
6HR MIN TEMP:  58; 6HR MAX TEMP:  63;

CADILLAC       CLOUDY    55  52  92 E9        30.15F
CHARLEVOIX     CLOUDY    60  55  82 E8        30.23F
6HR MIN TEMP:  60; 6HR MAX TEMP:  62;

FRANKFORT      CLOUDY    59  55  85 E3        30.15S
GAYLORD        MOCLDY    58  53  84 NE9       30.20F
6HR MIN TEMP:  58; 6HR MAX TEMP:  59; 6HR PCP:  0.01;

GRAYLING       MOCLDY    58  52  80 E9        30.18F
HARBOR SPRINGS CLOUDY    60  54  80 E9        30.21F
HOUGHTON LAKE  LGT RAIN  53  52  96 E8        30.18F
6HR MIN TEMP:  53; 6HR MAX TEMP:  59; 6HR PCP:  0.23;

MANISTEE       LGT RAIN  57  56  96 NE7       30.14R
OSCODA         RAIN      57  55  92 S7        30.18S
6HR MIN TEMP:  57; 6HR MAX TEMP:  63;

PELLSTON       PTCLDY    60  53  77 E5        30.23F
6HR MIN TEMP:  60; 6HR MAX TEMP:  61; 6HR PCP: TRACE;

ROGERS CITY    CLOUDY    60  55  82 E9        30.23F
TRAVERSE CITY  CLOUDY    61  55  81 NE5       30.15F
6HR MIN TEMP:  60; 6HR MAX TEMP:  66; 6HR PCP:  0.01;

$$
MIZ007>008-015-010700-
EASTERN UPPER MICHIGAN

CITY           SKY/WX    TMP DP  RH WIND       PRES   REMARKS
KINROSS        CLOUDY    56  46  69 E7        30.25F
6HR MIN TEMP:  56; 6HR MAX TEMP:  61;

MACKINAC ISLAN CLOUDY    61  53  74 E9        30.24R
NEWBERRY       PTCLDY    54  48  81 NE5       30.25F
6HR MIN TEMP:  53; 6HR MAX TEMP:  61;

S. S. MARIE    CLOUDY    57  46  66 E5        30.26S
6HR MIN TEMP:  57; 6HR MAX TEMP:  63;

MUNISING         N/A     57  54  89 CALM      30.24F
6HR MIN TEMP:  57; 6HR MAX TEMP:  63;

$$
MIZ004>006-011>014-085-010700-
CENTRAL UPPER MICHIGAN

CITY           SKY/WX    TMP DP  RH WIND       PRES   REMARKS
MANISTIQUE     PTCLDY    57  51  80 NE5       30.23F
6HR MIN TEMP:  57; 6HR MAX TEMP:  63;

ESCANABA       CLOUDY    62  53  72 NE5       30.22F
6HR MIN TEMP:  62; 6HR MAX TEMP:  64;

MENOMINEE      CLOUDY    62  56  80 E9        30.19F
6HR MIN TEMP:  62; 6HR MAX TEMP:  63;

SAWYER-GWINN   CLOUDY    58  51  77 E5        30.25F
6HR MIN TEMP:  55; 6HR MAX TEMP:  58;

$$
MIZ001>003-009>011-084-010700-
WESTERN UPPER MICHIGAN

CITY           SKY/WX    TMP DP  RH WIND       PRES   REMARKS
IRON MOUNTAIN  PTCLDY    55  49  80 CALM      30.22F
6HR MIN TEMP:  55; 6HR MAX TEMP:  60;

HOUGHTON       CLEAR     56  47  71 E7        30.25F
6HR MIN TEMP:  54; 6HR MAX TEMP:  57;

COPPER HARBOR    N/A     55  52  89 S5        30.26F
6HR MIN TEMP:  52; 6HR MAX TEMP:  58;

$$

ABBREVIATIONS USED IN REMARKS
   TC - TEMPERATURE IN CELSIUS
  WCI - WIND CHILL INDEX
   HX - HEAT INDEX
  VSB - VISIBILITY





USA.gov is the U.S. government's official web portal to all federal, state and local government web resources and services.